This demonstration page uses our WeatherBlox Daily Observations layout. Learn more.

Hourly Observations for February 14, 2015

Temp ( °F °C ) Dew Point ( °F °C ) Humidity (%) Winds ( mph kmh ) Pressure ( in mb ) Visibility ( mi km ) Precip ( " mm )
12:15 am 00:15 Clear 45 7 28 -2.1 53 53 WSW 12 19 30.12 1020 10 16.0934 0 0
12:35 am 00:35 Clear 44 6.5 28 -2.1 55 55 W 14 22 30.12 1020 10 16.0934 0 0
12:55 am 00:55 Clear 44 6.5 28 -2 55 55 W 12 19 30.12 1020 10 16.0934 0 0
1:15 am 01:15 Clear 42 5.4 28 -2.1 59 59 W 12 19 30.15 1021 10 16.0934 0 0
1:35 am 01:35 Clear 40 4.6 28 -2 63 63 W 10 17 30.15 1021 10 16.0934 0 0
1:55 am 01:55 Clear 41 5 29 -1.6 63 63 W 9 15 30.15 1021 10 16.0934 0 0
2:15 am 02:15 Clear 40 4.5 29 -1.7 64 64 W 9 15 30.15 1021 10 16.0934 0 0
2:35 am 02:35 Clear 40 4.2 29 -1.6 66 66 WNW 8 13 30.15 1021 10 16.0934 0 0
2:55 am 02:55 Clear 39 3.7 28 -2 67 67 WNW 8 13 30.15 1021 10 16.0934 0 0
3:15 am 03:15 Clear 38 3.1 29 -1.9 70 70 WNW 8 13 30.18 1022 10 16.0934 0 0
3:35 am 03:35 Clear 37 2.5 28 -2.1 72 72 WNW 9 15 30.18 1022 10 16.0934 0 0
3:55 am 03:55 Clear 37 3 29 -1.8 71 71 NW 9 15 30.18 1022 10 16.0934 0 0
4:15 am 04:15 Clear 37 2.9 30 -1.1 75 75 WNW 9 15 30.18 1022 10 16.0934 0 0
4:35 am 04:35 Clear 36 2.2 29 -1.5 77 77 WNW 8 13 30.18 1022 10 16.0934 0 0
4:55 am 04:55 Clear 37 2.8 30 -1.1 76 76 WNW 8 13 30.18 1022 10 16.0934 0 0
5:15 am 05:15 Clear 37 2.5 29 -1.6 75 75 W 6 9 30.18 1022 10 16.0934 0 0
5:35 am 05:35 Clear 35 1.9 29 -1.6 78 78 N 14 22 30.21 1023 10 16.0934 0 0
5:55 am 05:55 Clear 34 1 29 -1.6 83 83 N 6 9 30.21 1023 10 16.0934 0 0
6:15 am 06:15 Clear 32 0.2 28 -2.1 85 85 N 3 6 30.24 1024 10 16.0934 0 0
6:35 am 06:35 Clear 31 -0.6 27 -2.7 86 86 N 3 6 30.24 1024 10 16.0934 0 0
6:55 am 06:55 Clear 31 -0.8 27 -2.6 88 88 N 5 7 30.24 1024 10 16.0934 0 0
7:15 am 07:15 Clear 29 -1.9 26 -3.5 89 89 NNE 7 11 30.24 1024 10 16.0934 0 0
7:35 am 07:35 Sunny 28 -2.5 25 -4 90 90 NNE 7 11 30.24 1024 10 16.0934 0 0
7:55 am 07:55 Sunny 30 -1.2 28 -2.4 92 92 NNE 13 20 30.27 1025 10 16.0934 0 0
8:15 am 08:15 Sunny 31 -0.5 27 -2.7 85 85 NE 9 15 30.27 1025 10 16.0934 0 0
8:35 am 08:35 Sunny 32 0 27 -2.6 83 83 NE 16 26 30.3 1026 10 16.0934 0 0
8:55 am 08:55 Sunny 32 0 27 -3 80 80 NE 22 35 30.3 1026 10 16.0934 0 0
9:15 am 09:15 Partly Cloudy 31 -0.4 26 -3.4 80 80 NE 24 39 30.33 1027 10 16.0934 0 0
9:35 am 09:35 Mostly Cloudy 30 -1 26 -3.6 83 83 NE 22 35 30.33 1027 10 16.0934 0 0
9:55 am 09:55 Cloudy 30 -1.3 26 -3.5 85 85 NE 22 35 30.36 1028 10 16.0934 0 0
10:15 am 10:15 Cloudy 29 -1.7 26 -3.6 87 87 NE 24 39 30.39 1029 10 16.0934 0 0
10:35 am 10:35 Cloudy 28 -2 25 -3.7 88 88 NE 28 44 30.42 1030 10 16.0934 0 0
10:55 am 10:55 Cloudy 28 -2.1 24 -4.2 86 86 NE 23 37 30.42 1030 10 16.0934 0 0
11:15 am 11:15 Cloudy 28 -2 23 -5 80 80 ENE 22 35 30.42 1030 10 16.0934 0 0
11:35 am 11:35 Cloudy 27 -2.6 22 -5.5 81 81 NE 20 31 30.45 1031 10 16.0934 0 0
11:55 am 11:55 Cloudy 27 -2.6 22 -5.6 80 80 ENE 22 35 30.45 1031 10 16.0934 0 0
12:15 pm 12:15 Cloudy 26 -3.1 21 -6.1 80 80 NE 18 30 30.45 1031 10 16.0934 0 0
12:35 pm 12:35 Cloudy 27 -2.7 20 -6.5 75 75 NE 22 35 30.42 1030 10 16.0934 0 0
12:55 pm 12:55 Cloudy 26 -3.2 19 -7 75 75 ENE 22 35 30.42 1030 10 16.0934 0 0
1:15 pm 13:15 Cloudy 27 -3 19 -7.3 73 73 NE 20 31 30.42 1030 10 16.0934 0 0
1:35 pm 13:35 Cloudy 27 -2.7 18 -7.7 69 69 ENE 18 30 30.42 1030 10 16.0934 0 0
1:55 pm 13:55 Mostly Cloudy 29 -1.9 17 -8.4 62 62 ENE 20 31 30.42 1030 10 16.0934 0 0
2:15 pm 14:15 Partly Cloudy 30 -1.2 16 -8.9 56 56 ENE 17 28 30.42 1030 10 16.0934 0 0
2:35 pm 14:35 Partly Cloudy 30 -1.3 14 -9.8 53 53 E 17 28 30.42 1030 10 16.0934 0 0
2:55 pm 14:55 Sunny 29 -1.7 9 -12.8 43 43 ENE 18 30 30.39 1029 10 16.0934 0 0
3:15 pm 15:15 Sunny 27 -2.9 6 -14.3 41 41 ENE 16 26 30.39 1029 10 16.0934 0 0
3:35 pm 15:35 Sunny 28 -2.4 8 -13.2 44 44 ENE 15 24 30.39 1029 10 16.0934 0 0
3:55 pm 15:55 Sunny 29 -1.8 11 -11.5 48 48 ENE 14 22 30.39 1029 10 16.0934 0 0
4:15 pm 16:15 Sunny 28 -2.4 7 -13.7 42 42 E 13 20 30.39 1029 10 16.0934 0 0
4:35 pm 16:35 Sunny 27 -2.8 2 -16.6 34 34 ENE 16 26 30.39 1029 10 16.0934 0 0
4:55 pm 16:55 Sunny 27 -3 1 -17.1 33 33 E 16 26 30.39 1029 10 16.0934 0 0
5:15 pm 17:15 Sunny 25 -3.7 1 -17.2 35 35 E 13 20 30.39 1029 10 16.0934 0 0
5:35 pm 17:35 Sunny 24 -4.3 2 -16.6 38 38 ENE 16 26 30.39 1029 10 16.0934 0 0
5:55 pm 17:55 Partly Cloudy 24 -4.5 4 -15.3 43 43 E 18 30 30.39 1029 10 16.0934 0 0
6:15 pm 18:15 Mostly Cloudy 22 -5.3 3 -16.3 42 42 E 17 28 30.42 1030 10 16.0934 0 0
6:35 pm 18:35 Cloudy 22 -5.5 1 -17.1 40 40 E 18 30 30.42 1030 10 16.0934 0 0
6:55 pm 18:55 Cloudy 22 -5.8 0 -18 38 38 E 13 20 30.45 1031 10 16.0934 0 0
7:15 pm 19:15 Cloudy 22 -5.8 0 -17.9 38 38 E 14 22 30.45 1031 10 16.0934 0 0
7:35 pm 19:35 Cloudy 21 -6 2 -16.9 42 42 ESE 15 24 30.45 1031 10 16.0934 0 0
7:55 pm 19:55 Cloudy 21 -6.2 1 -17 42 42 E 14 22 30.45 1031 10 16.0934 0 0
8:15 pm 20:15 Cloudy 20 -6.5 3 -16.1 47 47 ESE 15 24 30.45 1031 10 16.0934 0 0
8:35 pm 20:35 Cloudy 19 -7.1 3 -15.9 50 50 E 10 17 30.48 1032 10 16.0934 0 0
8:55 pm 20:55 Cloudy 19 -7.5 3 -16.3 50 50 E 7 11 30.48 1032 10 16.0934 0 0
9:15 pm 21:15 Cloudy 18 -7.7 2 -16.5 50 50 E 9 15 30.48 1032 10 16.0934 0 0
9:35 pm 21:35 Partly Cloudy 17 -8.1 3 -16 53 53 E 10 17 30.48 1032 10 16.0934 0 0
9:55 pm 21:55 Clear 17 -8.2 4 -15.5 56 56 E 12 19 30.48 1032 10 16.0934 0 0
10:15 pm 22:15 Clear 17 -8.5 5 -15.2 59 59 E 12 19 30.48 1032 10 16.0934 0 0
10:35 pm 22:35 Clear 17 -8.5 3 -16.2 54 54 E 13 20 30.48 1032 10 16.0934 0 0
10:55 pm 22:55 Clear 17 -8.3 2 -16.5 52 52 E 13 20 30.48 1032 10 16.0934 0 0
11:15 pm 23:15 Partly Cloudy 17 -8.4 2 -16.7 52 52 E 12 19 30.48 1032 10 16.0934 0 0
11:35 pm 23:35 Mostly Cloudy 17 -8.3 2 -16.5 52 52 E 12 19 30.48 1032 10 16.0934 0 0
11:55 pm 23:55 Cloudy 17 -8.3 2 -16.5 52 52 E 12 19 30.48 1032 10 16.0934 0 0

Powered by AerisWeather